GW2041 Weather Reports


Display with metric or nautical units.
time (UTC)temp
F
wind
direction
speed
MPH
gust
MPH
rain 1hr
in
rain 24hr
in
rain mn
in
humidity
%
barometer
mb
20260509222307 51 23 0.0 0.0 0.00 0.00 0.00 73 1014.0
20260509221305 51 23 0.0 0.0 0.00 0.00 0.00 72 1013.8
20260509214759 53 23 0.0 0.0 0.00 0.00 0.00 69 1013.7
20260509213306 54 23 0.0 0.0 0.00 0.00 0.00 68 1013.9
20260509212305 54 23 0.0 0.0 0.00 0.00 0.00 67 1013.9
20260509211304 55 23 0.0 0.0 0.00 0.00 0.00 66 1014.1
20260509205306 56 23 0.0 0.0 0.00 0.00 0.00 63 1014.5
20260509204304 56 23 0.0 0.0 0.00 0.00 0.00 63 1014.5
20260509203307 57 23 0.0 0.0 0.00 0.00 0.00 61 1014.5
20260509202306 57 23 0.0 0.0 0.00 0.00 0.00 60 1014.5
20260509201302 58 23 0.0 0.0 0.00 0.00 0.00 59 1013.9
20260509200303 58 23 0.0 0.0 0.00 0.00 0.00 58 1013.9
20260509195301 58 23 0.0 0.0 0.00 0.00 0.00 57 1014.5
20260509194300 58 23 0.0 0.0 0.00 0.00 0.00 57 1014.5
20260509193303 58 23 0.0 0.0 0.00 0.00 0.00 56 1014.3
20260509192300 59 23 0.0 0.0 0.00 0.00 0.00 54 1014.3
20260509191302 60 23 0.0 0.0 0.00 0.00 0.00 53 1014.4
20260509190303 61 23 0.0 0.0 0.00 0.00 0.00 51 1014.4
20260509185258 62 23 0.0 1.0 0.00 0.00 0.00 50 1014.6
20260509183300 64 23 0.0 0.0 0.00 0.00 0.00 46 1014.8
20260509182211 66 315 1.0 4.0 0.00 0.00 0.00 44 1014.8
20260509181212 67 23 2.0 2.0 0.00 0.00 0.00 42 1014.9
20260509180213 69 248 2.0 4.0 0.00 0.00 0.00 40 1014.9
20260509175652 70 248 2.0 4.0 0.00 0.00 0.00 40 1015.0
20260509174214 72 180 3.0 6.0 0.00 0.00 0.00 39 1015.0
20260509173211 73 248 2.0 4.0 0.00 0.00 0.00 39 1014.8
20260509172210 73 270 1.0 4.0 0.00 0.00 0.00 40 1014.8
20260509171211 74 338 1.0 3.0 0.00 0.00 0.00 40 1015.3
20260509170211 74 248 1.0 4.0 0.00 0.00 0.00 40 1015.3
20260509165211 74 180 2.0 3.0 0.00 0.00 0.00 41 1014.6
20260509164210 71 248 1.0 2.0 0.00 0.00 0.00 41 1014.6
20260509163212 71 135 1.0 3.0 0.00 0.00 0.00 42 1014.5
20260509162207 70 270 1.0 3.0 0.00 0.00 0.00 43 1014.5
20260509161207 70 135 2.0 3.0 0.00 0.00 0.00 41 1014.8
20260509160209 71 248 2.0 3.0 0.00 0.00 0.00 40 1014.8
20260509155642 75 203 2.0 5.0 0.00 0.00 0.00 38 1014.8
20260509154207 76 270 3.0 6.0 0.00 0.00 0.00 40 1014.8
20260509153206 74 248 2.0 5.0 0.00 0.00 0.00 42 1014.4
20260509152637 71 225 3.0 4.0 0.00 0.00 0.00 43 1014.4
20260509151159 71 158 3.0 6.0 0.00 0.00 0.00 41 1014.8
20260509150205 71 225 2.0 4.0 0.00 0.00 0.00 41 1014.8
20260509145201 71 135 3.0 4.0 0.00 0.00 0.00 41 1014.6
20260509144647 71 135 3.0 5.0 0.00 0.00 0.00 41 1014.6
20260509143205 73 203 2.0 6.0 0.00 0.00 0.00 40 1014.5
20260509142200 73 158 3.0 5.0 0.00 0.00 0.00 41 1014.5
20260509141202 72 270 4.0 7.0 0.00 0.00 0.00 45 1014.4
20260509140204 70 248 3.0 7.0 0.00 0.00 0.00 47 1014.4
20260509135158 67 248 1.0 4.0 0.00 0.00 0.00 49 1014.7
20260509134636 67 315 1.0 3.0 0.00 0.00 0.00 48 1014.7
20260509133201 68 203 2.0 8.0 0.00 0.00 0.00 47 1014.8
20260509132158 70 180 2.0 4.0 0.00 0.00 0.00 46 1014.8
20260509131158 69 135 2.0 4.0 0.00 0.00 0.00 48 1014.9
20260509130203 69 293 1.0 4.0 0.00 0.00 0.00 49 1014.9
20260509125158 68 45 2.0 3.0 0.00 0.00 0.00 48 1014.8
20260509124159 68 68 2.0 4.0 0.00 0.00 0.00 50 1014.8
20260509123159 68 338 2.0 4.0 0.00 0.00 0.00 50 1015.1
20260509121157 69 158 2.0 4.0 0.00 0.00 0.00 49 1015.0
20260509120202 69 338 1.0 3.0 0.00 0.00 0.00 52 1015.0
20260509115157 68 315 2.0 6.0 0.00 0.00 0.00 54 1015.0
20260509114157 67 248 2.0 5.0 0.00 0.00 0.00 55 1015.0
20260509113201 64 338 0.0 0.0 0.00 0.00 0.00 59 1015.1
20260509112725 65 23 1.0 3.0 0.00 0.00 0.00 59 1015.1
20260509111252 64 338 0.0 2.0 0.00 0.00 0.00 59 1015.3
20260509110249 66 45 1.0 3.0 0.00 0.00 0.00 58 1015.3
20260509105249 66 45 1.0 3.0 0.00 0.00 0.00 58 1015.3
20260509104251 65 68 2.0 4.0 0.00 0.00 0.00 62 1015.3
20260509103249 63 338 2.0 4.0 0.00 0.00 0.00 62 1015.5
20260509102250 63 315 1.0 4.0 0.00 0.00 0.00 62 1015.5
20260509101250 63 23 2.0 4.0 0.00 0.00 0.00 64 1015.3
20260509100247 61 203 2.0 5.0 0.00 0.00 0.00 64 1015.3
20260509095248 64 180 2.0 6.0 0.00 0.00 0.00 61 1015.5
20260509094248 68 45 2.0 6.0 0.00 0.00 0.00 61 1015.5
20260509093248 66 135 1.0 3.0 0.00 0.00 0.00 63 1015.4
20260509092249 63 23 1.0 3.0 0.00 0.00 0.00 69 1015.4
20260509091720 61 338 1.0 5.0 0.00 0.00 0.00 70 1015.4
20260509090248 62 45 2.0 6.0 0.00 0.00 0.00 72 1015.4
20260509085249 57 0 2.0 5.0 0.00 0.00 0.00 75 1015.5
20260509084741 60 338 1.0 3.0 0.00 0.00 0.00 72 1015.5
20260509083726 61 270 2.0 5.0 0.00 0.00 0.00 72 1015.6
20260509082245 63 338 0.0 2.0 0.00 0.00 0.00 75 1015.6
20260509081245 60 45 2.0 8.0 0.00 0.00 0.00 77 1015.5
20260509080246 59 315 1.0 4.0 0.00 0.00 0.00 78 1015.5
20260509075247 59 135 1.0 3.0 0.00 0.00 0.00 82 1015.5
20260509074724 56 180 0.0 3.0 0.00 0.00 0.00 88 1015.5
20260509073247 54 23 1.0 4.0 0.00 0.00 0.00 88 1015.3
20260509072243 52 68 2.0 4.0 0.00 0.00 0.00 89 1015.3
20260509071241 51 68 1.0 4.0 0.00 0.00 0.00 90 1015.5
20260509070239 50 315 1.0 4.0 0.00 0.00 0.00 91 1015.5
20260509065237 49 113 0.0 3.0 0.00 0.00 0.00 91 1015.5
20260509064240 49 23 0.0 1.0 0.00 0.00 0.00 91 1015.5
20260509063238 48 45 1.0 3.0 0.00 0.00 0.00 92 1015.4
20260509062237 47 45 0.0 3.0 0.00 0.00 0.00 92 1015.4
20260509061733 46 23 0.0 0.0 0.00 0.00 0.00 92 1015.4
20260509060238 46 45 0.0 0.0 0.00 0.00 0.00 92 1015.4
20260509055235 45 23 0.0 0.0 0.00 0.00 0.00 92 1015.3
20260509054237 44 23 0.0 0.0 0.00 0.00 0.00 92 1015.3
20260509053234 44 68 0.0 1.0 0.00 0.00 0.00 91 1015.1
20260509052233 43 23 0.0 2.0 0.00 0.00 0.00 91 1015.1
20260509051236 42 68 0.0 2.0 0.00 0.00 0.00 91 1015.0
20260509050235 41 45 0.0 2.0 0.00 0.00 0.00 91 1015.0
20260509044238 41 23 0.0 0.0 0.00 0.00 0.00 90 1015.0
20260509043705 40 45 0.0 0.0 0.00 0.00 0.00 90 1015.2
20260509042232 40 45 0.0 0.0 0.00 0.00 0.00 90 1015.2
20260509041236 40 23 0.0 0.0 0.00 0.00 0.00 90 1015.3
20260509040335 40 23 0.0 0.0 0.00 0.00 0.00 90 1015.3
20260509035336 40 23 0.0 0.0 0.00 0.00 0.00 90 1015.3
20260509034335 40 23 0.0 0.0 0.00 0.00 0.00 89 1015.3
20260509033820 41 0 0.0 0.0 0.00 0.00 0.00 89 1015.5
20260509032333 40 0 0.0 0.0 0.00 0.00 0.00 89 1015.5
20260509031332 40 68 0.0 0.0 0.00 0.00 0.00 89 1015.6
20260509025333 41 68 0.0 0.0 0.00 0.00 0.00 89 1015.8
20260509024807 41 68 0.0 0.0 0.00 0.00 0.00 88 1015.8
20260509023333 41 68 0.0 0.0 0.00 0.00 0.00 88 1015.8
20260509022808 41 68 0.0 0.0 0.00 0.00 0.00 88 1015.8
20260509021333 42 68 0.0 0.0 0.00 0.00 0.00 88 1015.7
20260509020333 42 68 0.0 0.0 0.00 0.00 0.00 87 1015.7
20260509015330 42 68 0.0 0.0 0.00 0.00 0.00 87 1016.0
20260509014827 42 68 0.0 0.0 0.00 0.00 0.00 87 1016.0
20260509013330 42 68 0.0 0.0 0.00 0.00 0.00 87 1015.9
20260509012334 43 68 0.0 0.0 0.00 0.00 0.00 87 1015.9
20260509011330 43 68 0.0 0.0 0.00 0.00 0.00 86 1016.5
20260509010808 43 68 0.0 0.0 0.00 0.00 0.00 86 1016.5
20260509005330 43 68 0.0 0.0 0.00 0.00 0.00 86 1016.8
20260509004330 43 68 0.0 0.0 0.00 0.00 0.00 85 1016.8
20260509003329 44 68 0.0 0.0 0.00 0.00 0.00 85 1016.1
20260509002326 44 68 0.0 0.0 0.00 0.00 0.00 85 1016.1
20260509001328 45 68 0.0 0.0 0.00 0.00 0.00 85 1016.1
20260509000811 45 68 0.0 0.0 0.00 0.00 0.00 84 1016.1
20260508235819 44 68 0.0 0.0 0.00 0.00 0.00 84 1016.3
20260508234328 45 68 0.0 0.0 0.00 0.00 0.00 83 1016.3
20260508233330 45 68 0.0 0.0 0.00 0.00 0.00 83 1016.3
20260508232327 45 68 0.0 0.0 0.00 0.00 0.00 82 1016.3
20260508231804 45 68 0.0 0.0 0.00 0.00 0.00 82 1016.7
20260508230327 46 68 0.0 0.0 0.00 0.00 0.00 81 1016.7
20260508225326 46 68 0.0 0.0 0.00 0.00 0.00 81 1016.6
20260508224325 46 68 0.0 0.0 0.00 0.00 0.00 80 1016.6
20260508223328 47 68 0.0 0.0 0.00 0.00 0.00 80 1016.7